Regional Weather Roundup
Issued by NWS Cleveland, OH

Home | Current Version | Previous Version | Text Only | Print | Product List | Glossary On
Versions: 1 2 3 4 5 6 7 8 9 10 11 12 13 14 15 16 17 18 19 20 21 22 23 24 25 26 27 28 29 30 31 32 33 34 35 36 37 38 39 40 41 42 43 44 45 46 47 48 49 50
000
ASUS41 KCLE 310710
RWRCLE
OHIO REGIONAL WEATHER ROUNDUP
NATIONAL WEATHER SERVICE WILMINGTON, OH
300 AM EDT FRI OCT 31 2014

NOTE: "FAIR" INDICATES FEW OR NO CLOUDS BELOW 12,000 FEET WITH NO
SIGNIFICANT WEATHER AND/OR OBSTRUCTIONS TO VISIBILITY.

OHZ001>008-015>018-024>027-034-035-043-044-310800-
   NORTHWEST OHIO

CITY           SKY/WX    TMP DP  RH WIND       PRES   REMARKS
DEFIANCE       CLOUDY    44  36  73 SW5       30.00F
FINDLAY        CLOUDY    44  37  76 S5        29.99F
TOLEDO EXPRESS CLOUDY    44  34  67 SW6       29.99F
TOLEDO METCALF CLOUDY    45  37  73 SW6       30.00F
LIMA           CLOUDY    44  35  70 S5        30.00F
$$

OHZ009>014-019>023-028>033-038-089-310800-
   NORTHEAST OHIO

CITY           SKY/WX    TMP DP  RH WIND       PRES   REMARKS
CLE-HOPKINS    CLOUDY    44  35  70 S7        30.02F
CLE-LAKEFRONT  CLOUDY   N/A N/A N/A SW6       30.00
CUY CO. ARPT   NOT AVBL
LORAIN-ELYRIA  CLOUDY    43  36  76 SW6       30.00F
ASHTABULA      MOCLDY    39  36  89 S5        30.00F
AKRON-CANTON   CLOUDY    44  39  82 CALM      30.00F
WOOSTER        CLOUDY    44  38  79 CALM      30.00F
MANSFIELD      CLOUDY    43  35  73 SW5       30.00F
YOUNGSTOWN     CLOUDY    42  38  85 CALM      29.99F
$$

OHZ042-051>053-060>062-070>072-077>081-310800-
  SOUTHWEST OHIO

CITY           SKY/WX    TMP DP  RH WIND       PRES   REMARKS
CINC-COVINGTON LGT RAIN  44  39  82 NW7       30.02S
CINC-LUNKEN    LGT RAIN  42  39  89 CALM      30.04F
HAMILTON       LGT RAIN  43  41  93 CALM      30.04S
DAYTON         CLOUDY    44  35  70 CALM      30.02F
WRIGHT-PAT AFB CLOUDY    41  38  89 CALM      30.02F
DAYTON GENERAL CLOUDY    43  36  76 CALM      30.01F
WILMINGTON     CLOUDY    39  33  79 SE3       30.02S
$$

OHZ036-037-039>041-045>050-054>059-063>069-073>076-082>088-310800-
  CENTRAL AND SOUTHEAST OHIO

CITY           SKY/WX    TMP DP  RH WIND       PRES   REMARKS
COLUMBUS       MOCLDY    44  34  67 CALM      30.01F
OSU AIRPORT    CLOUDY    41  35  79 SW5       30.01F
BOLTON FIELD   CLOUDY    37  36  95 MISG      30.02F
RICKENBACK AFB CLOUDY    37  34  87 CALM      30.02F
NEWARK         CLOUDY    45  35  68 SW3       30.01F
MARION         CLOUDY    42  36  79 CALM      30.00F
LANCASTER      CLOUDY    39  36  89 CALM      30.02F
ZANESVILLE     CLOUDY    43  37  79 CALM      30.01F
NEW PHILLY     CLOUDY    45  40  82 CALM      30.02F
$$



USA.gov is the U.S. government's official web portal to all federal, state and local government web resources and services.